Flag Weather past 2 weeks in Słupsk, Poland

Now
42 °F

Overcast.


Feels Like: 38 °F
Forecast: 35 / 42 °F
Wind: 7 mph from Southeast

Location: Leba

Current Time: Nov 23, 2014 at 6:13:02 PM

Latest Report: Nov 23, 2014 at 5:00 PM


Visibility: 9 mi

Pressure: 30.37 "Hg

Humidity: 71%

Dew point: 33 °F

Location of SłupskLocation

Historic Weather in Słupsk — Graph

°F

Słupsk temperature yesterday

Maximum temperature yesterday: 42 °F (at 12:00 PM)
Minimum temperature yesterday: 38 °F (at 6:00 PM)
Average temperature yesterday: 41 °F

Past Weeks' High & Low Weather Summary

 TemperatureHumidityPressure
High55 °F (Nov 10, 11:00 AM)100% (Nov 8, 8:00 PM)30.43 "Hg (Nov 8, 8:00 PM)
Low35 °F (Nov 9, 7:00 AM)73% (Nov 23, 4:00 PM)29.85 "Hg (Nov 16, 2:00 PM)
Average43 °F93%30.09 "Hg
* Reported Nov 8 4:00 PM — Nov 23 4:00 PM, Słupsk, Weather by CustomWeather, © 2014

Note: Actual official high and low records may vary slightly from our data, if they occured in-between our weather recording intervals... More about our weather records

Advertising

Słupsk weather history for previous 24 hours

 ConditionsComfort  
Time TempWeatherWind HumidityBarometerVisibility
4:00 PM
Nov 23
42 °FOvercast.6 mph73%30.38 "Hg9 mi
3:00 PM42 °FOvercast.6 mph75%30.38 "Hg9 mi
2:00 PM43 °FPartly sunny.5 mph75%30.40 "Hg7 mi
1:00 PM43 °FFog.3 mph78%30.40 "Hg6 mi
12:00 PM42 °FFog.17 mph79%30.42 "Hg2 mi
11:00 AM41 °FFog.6 mph82%30.43 "Hg6 mi
10:00 AM39 °FFog.3 mph94%30.43 "Hg5 mi
9:00 AM37 °FFog.2 mph90%30.42 "Hg4 mi
8:00 AM36 °FFog.2 mph90%30.42 "Hg4 mi
7:00 AM35 °FFog.2 mph92%30.40 "Hg5 mi
6:00 AM35 °FFog.2 mph96%30.40 "Hg5 mi
5:00 AM35 °FFog.2 mph96%30.40 "Hg4 mi
4:00 AM36 °FFog.1 mph95%30.39 "Hg2 mi
3:00 AM35 °FFog.1 mph93%30.40 "Hg2 mi
2:00 AMN/APassing clouds.24 mphN/AN/A4 mi
1:00 AM37 °FFog.1 mph98%30.39 "Hg2 mi
12:00 AM37 °FFog.1 mph98%30.39 "Hg2 mi
11:00 PM
Nov 22
40 °FFog.1 mph95%30.38 "Hg4 mi
10:00 PMN/APassing clouds.28 mphN/AN/A2 mi
9:00 PM40 °FFog.1 mph95%30.38 "Hg3 mi
8:00 PM40 °FFog.1 mph95%30.37 "Hg3 mi
7:00 PM39 °FFog.1 mph99%30.36 "Hg3 mi
6:00 PM38 °FFog.1 mph100%30.35 "Hg4 mi
Weather by CustomWeather, © 2014

See weather overviewHow to use our weather pages